« Back
NWS Peachtree City, Ga » Text Product » GA Regional Weather Roundup


Printer-friendly Version
Current Version              Previous Versions:   1  2  3  4  5  6  7  8  9  

Regional Weather Roundup

699
ASUS42 KFFC 301103
RWRGA
WEATHER ROUNDUP FOR GEORGIA
NATIONAL WEATHER SERVICE PEACHTREE CITY GA
700 AM EDT THU OCT 30 2014

NOTE: "FAIR" INDICATES FEW OR NO CLOUDS BELOW 12,000 FEET WITH NO
SIGNIFICANT WEATHER AND/OR OBSTRUCTIONS TO VISIBILITY.

* = USE WITH CAUTION. THE STATIONS MARKED WITH AN ASTERISK MAY NOT
REPORT WEATHER SUCH AS PRECIPITATION, FOG, OR THUNDER AND ARE NOT
QUALITY CONTROLLED BY NWS.

THE REMARK "TC" DENOTES TEMPERATURE READING IN DEGREES CELSIUS.

GAZ001>058-301200-
NORTH GEORGIA

CITY           SKY/WX    TMP DP  RH WIND       PRES   REMARKS
ATLANTA        CLEAR     46  43  89 NW9       30.05S
ATHENS         CLEAR     42  40  92 CALM      30.05R
CHAMBLEE       CLEAR     42  39  89 CALM      30.06R
PEACHTREE CITY CLEAR     45  43  93 CALM      30.07R
ROME           CLEAR     40  38  93 CALM      30.09R
WEST ATLANTA   CLEAR     46  42  86 CALM      30.07R
GAINESVILLE    CLEAR     43  42  97 CALM      30.06R
CARTERSVILLE   CLEAR     39  37  92 CALM      30.09R


CITY           SKY/WX    TMP DP  RH WIND       PRES   REMARKS
DALTON*        CLEAR     41  41 100 NW5       30.08S
LAWRENCEVILLE* CLEAR     43  36  75 CALM      30.04
MARIETTA       CLEAR     46  43  90 NW6       30.06R
KENNESAW*      CLEAR     45  39  81 CALM      30.09
$$

GAZ059>098-102>109-301200-
CENTRAL GEORGIA

CITY           SKY/WX    TMP DP  RH WIND       PRES   REMARKS
AUGUSTA-BUSH   CLEAR     51  47  86 N7        30.00R
AUGUSTA-DANIEL CLEAR     55  46  71 N9        30.01R
COLUMBUS       CLEAR     51  43  74 N3        30.06R
MACON          CLEAR     48  45  89 CALM      30.03R
ROBINS AFB     CLEAR     47  44  90 N6        30.00R


CITY           SKY/WX    TMP DP  RH WIND       PRES   REMARKS
LAGRANGE*      CLEAR     43  43  99 CALM      30.07S FOG
SYLVANIA*      PTCLDY    65  62  90 N5        29.99R
MILLEDGEVILLE* CLEAR     50  46  87 CALM      30.03S
$$

GAZ099>101-110>166-301200-
SOUTH GEORGIA

CITY           SKY/WX    TMP DP  RH WIND       PRES   REMARKS
SAVANNAH       MOCLDY    66  62  87 NW3       29.97R
VALDOSTA       PTCLDY    63  51  65 N10       29.99S
ALMA           CLOUDY    62  53  72 NW7       30.00R
ST SIMONS      CLEAR     64  62  93 NW7       29.97R
FT STEWART     MOCLDY    64  61  88 NW5       29.96R
ALBANY         CLEAR     57  48  72 N5        30.05R
HUNTER AFB     PTCLDY    65  64  96 NW5       29.95R
MOODY AFB      MOCLDY    62  54  74 N7        29.99S
BRUNSWICK      CLEAR     63  61  94 CALM      29.98R


CITY           SKY/WX    TMP DP  RH WIND       PRES   REMARKS
BAINBRIDGE*    CLOUDY    64  52  63 N7        30.02F
MOULTRIE*      PTCLDY    59  52  77 N5        30.02R
VIDALIA*       PTCLDY    57  52  82 CALM      30.00R
WAYCROSS*      CLOUDY    67  63  87 N7        29.98S
DOUGLAS*       MOCLDY    61  50  67 NW6       30.02S
$$



USA.gov is the U.S. government's official web portal to all federal, state and local government web resources and services.